カタログに戻る

STARLINK-33886

運用中通信VLEO
NORAD 63681·PAYLOAD·🇺🇸 United States

打ち上げ Apr 28, 2025 から Cape Canaveral Space Force Station

Loading…

次のパス (今後24時間)

TLE

最新Source: CelesTrak SupGP

元期: Sep 15, 2026, 02:04 UTC

1 63681C 25085T   26258.08659722 -.00030278  00000+0 -10964-2 0  2587
2 63681  43.0025  40.8019 0001685 271.9230  10.2308 15.27600285    17

AllMySatでSTARLINK-33886をリアルタイム追跡

Download on the App Store